Weather in Komarovo

Russia / Saint-Petersburg and Leningrad Oblast     60°11′19″N   29°48′34″E
temp.,
°C
wind,
m/s
gust,
m/s
humid.,
%
clouds,
%
prec.,
mm/h
press.,
hPa
HPBL,
m
17 june, thu
thu1700:00+11sw3108039 0.0 1019223
03:00+11wsw398334 0.0 1020181
06:00+13wsw39775 0.0 1021265
09:00+16w47565 0.0 1022763
12:00+19wsw45485 0.0 10231041
15:00+20wsw45465 0.0 1023914
18:00+19wsw35435 0.0 1023591
21:00+16sw11595 0.0 102311
18 june, fri
fri1800:00+13sse226286 0.0 102312
03:00+13ssw22837 0.0 102335
06:00+15s277833 0.0 1023179
09:00+19wsw476460 0.0 1022454
12:00+22wsw59500 0.0 10211063
15:00+23wsw610436 0.0 10201179
18:00+24wsw5104642 0.0 10191229
21:00+20wsw39602 0.0 1019242
19 june, sat
sat1900:00+16wsw25740 0.0 102069
03:00+14sw27850 0.0 1020108
06:00+17sw39783 0.0 1020249
09:00+21wsw48680 0.0 1020540
12:00+23wsw586017 0.0 10191199
15:00+25wsw69485 0.0 10191525
18:00+25wsw47470 0.0 10181443
21:00+21sw2666100 0.0 1018152
20 june, sun
sun2000:00+20sse2369100 0.0 101857
03:00+17s22812 0.0 101818
06:00+18s26820 0.0 1017152
09:00+23sw48662 0.0 1017605
12:00+26sw485617 0.0 10161447
15:00+26sw585296 0.0 10151590
18:00+25wsw495684 0.0 1015734
21:00+21w3970100 0.0 1015251
21 june, mon
mon2100:00+17wsw269382 0.2 1015137
03:00+15wsw2891100 0.2 1016170
06:00+16wsw26827 0.0 1017177
09:00+20wsw366019 0.0 1017525
12:00+23wsw465020 0.0 1018831
15:00+24wsw46465 0.0 1018921
18:00+24wnw35422 0.0 1018692
21:00+21wsw11551 0.0 101811